{"data":{"norad_id":58496,"intl_designator":"2023-187A","name":"XINGCHI-1 02A","alt_names":[],"object_type":"PAYLOAD","status":"ACTIVE","operator":null,"country":"EGYP","launch_date":"2023-12-04","launch_site_code":"JSC","launch_vehicle":null,"mission":null,"orbit_class":"UNKNOWN","rcs_meters":null,"size_class":null,"mass_kg":null,"dimensions":null,"purposes":[],"wikipedia_slug":null,"has_3d_model":false,"image_url":null,"decayed_at":null,"tle_current":{"epoch":"2026-09-21T22:29:33.106272Z","epoch_age_seconds":120861,"freshness":"FRESH","line1":"1 58496U 23187A   26264.93718873  .00000842  00000+0  10627-3 0  9991","line2":"2 58496  97.9215 347.1692 0011429 182.3255 177.7908 14.84491949151472","mean_motion":14.84491949,"eccentricity":0.0011429,"inclination_deg":97.9215,"raan_deg":347.1692,"arg_perigee_deg":182.3255,"mean_anomaly_deg":177.7908,"bstar":0.00010627,"rev_number":15147,"period_min":97.002883779197,"perigee_km":607.18833710596,"apogee_km":623.17366339093,"semimajor_km":6993.3180002484,"source":"CELESTRAK","updated_at":"2026-09-22T09:00:26.679131Z"}}}